AUA640 LHBP-LOWW

Flight info

Callsign AUA640
Flight time 0h 31m
Altitude 20000
Route GILEP DCT NATEX
Aircraft E195/M-SDE3GILORVW/S

Departure

Time 2026-05-04 05:11
Airport Budapest Liszt Ferenc International Airport (LHBP)

Arrival

Time 2026-05-04 05:42
Airport Vienna International Airport (LOWW)
Time Latitude Longitude Altitude Speed Heading
2026-05-04 04:50 47.43298 19.25667 462 ft 0 kts 68°
2026-05-04 05:02 47.43298 19.25666 462 ft 1 kts 68°
2026-05-04 05:03 47.43292 19.25646 462 ft 2 kts 68°
2026-05-04 05:03 47.43286 19.25625 462 ft 2 kts 68°
2026-05-04 05:04 47.43261 19.25578 461 ft 2 kts 356°
2026-05-04 05:04 47.43247 19.25586 461 ft 2 kts 315°
2026-05-04 05:04 47.43237 19.25603 461 ft 2 kts 312°
2026-05-04 05:06 47.43221 19.25629 461 ft 0 kts 312°
2026-05-04 05:06 47.43222 19.25627 461 ft 0 kts 312°
2026-05-04 05:06 47.43229 19.25616 461 ft 2 kts 312°
2026-05-04 05:07 47.43246 19.25588 461 ft 5 kts 313°
2026-05-04 05:07 47.43279 19.25536 461 ft 8 kts 313°
2026-05-04 05:07 47.43324 19.25464 462 ft 8 kts 312°
2026-05-04 05:09 47.44024 19.26304 477 ft 12 kts 43°
2026-05-04 05:09 47.44062 19.26419 477 ft 13 kts 78°
2026-05-04 05:10 47.44048 19.26554 476 ft 10 kts 126°
2026-05-04 05:10 47.43966 19.26687 472 ft 47 kts 132°
2026-05-04 05:10 47.43528 19.27396 452 ft 135 kts 131°
2026-05-04 05:10 47.42769 19.28624 756 ft 176 kts 133°
2026-05-04 05:11 47.42009 19.30085 1678 ft 188 kts 120°
2026-05-04 05:11 47.41391 19.31719 2613 ft 190 kts 121°
2026-05-04 05:11 47.40715 19.33493 3276 ft 209 kts 121°
2026-05-04 05:11 47.39891 19.35353 3902 ft 229 kts 140°
2026-05-04 05:12 47.38426 19.36236 4661 ft 240 kts 179°
2026-05-04 05:12 47.36824 19.35548 5380 ft 257 kts 215°
2026-05-04 05:12 47.35683 19.33459 6223 ft 270 kts 238°
2026-05-04 05:12 47.34684 19.31126 7172 ft 275 kts 234°
2026-05-04 05:13 47.33578 19.28832 8092 ft 280 kts 232°
2026-05-04 05:13 47.32406 19.26535 8978 ft 286 kts 231°
2026-05-04 05:13 47.31180 19.24198 9807 ft 293 kts 231°
2026-05-04 05:13 47.29921 19.21828 10496 ft 300 kts 231°
2026-05-04 05:14 47.28607 19.19373 11209 ft 309 kts 231°
2026-05-04 05:14 47.27263 19.16870 11878 ft 319 kts 231°
2026-05-04 05:14 47.25881 19.14300 12451 ft 330 kts 231°
2026-05-04 05:14 47.24445 19.11633 13124 ft 337 kts 232°
2026-05-04 05:15 47.23392 19.08586 13834 ft 343 kts 258°
2026-05-04 05:15 47.23410 19.05114 14614 ft 344 kts 287°
2026-05-04 05:15 47.24510 19.02069 15385 ft 341 kts 315°
2026-05-04 05:15 47.26360 18.99892 16220 ft 340 kts 327°
2026-05-04 05:16 47.28241 18.97800 17023 ft 344 kts 317°
2026-05-04 05:16 47.29731 18.95070 17793 ft 349 kts 304°
2026-05-04 05:16 47.30949 18.91982 18528 ft 353 kts 300°
2026-05-04 05:16 47.32062 18.88753 19288 ft 357 kts 298°
2026-05-04 05:17 47.33126 18.85488 19956 ft 354 kts 297°
2026-05-04 05:17 47.34185 18.82167 20098 ft 363 kts 297°
2026-05-04 05:17 47.35271 18.78732 20137 ft 383 kts 296°
2026-05-04 05:17 47.36397 18.75146 20123 ft 388 kts 296°
2026-05-04 05:18 47.37528 18.71539 20118 ft 388 kts 296°
2026-05-04 05:18 47.38658 18.67930 20111 ft 388 kts 296°
2026-05-04 05:18 47.39791 18.64303 20113 ft 387 kts 296°
2026-05-04 05:18 47.40913 18.60710 20113 ft 387 kts 296°
2026-05-04 05:19 47.42041 18.57088 20112 ft 387 kts 296°
2026-05-04 05:19 47.43153 18.53513 20108 ft 387 kts 296°
2026-05-04 05:19 47.44275 18.49907 20107 ft 387 kts 296°
2026-05-04 05:19 47.45400 18.46280 20107 ft 387 kts 296°
2026-05-04 05:20 47.46519 18.42671 20107 ft 387 kts 296°
2026-05-04 05:20 47.47636 18.39059 20105 ft 387 kts 296°
2026-05-04 05:20 47.48739 18.35492 20106 ft 387 kts 296°
2026-05-04 05:20 47.49864 18.31845 20106 ft 387 kts 295°
2026-05-04 05:21 47.50985 18.28208 20104 ft 387 kts 295°
2026-05-04 05:21 47.52106 18.24566 20105 ft 388 kts 295°
2026-05-04 05:21 47.53219 18.20943 20103 ft 387 kts 295°
2026-05-04 05:21 47.54329 18.17325 20102 ft 387 kts 295°
2026-05-04 05:22 47.55432 18.13725 20098 ft 381 kts 295°
2026-05-04 05:22 47.56507 18.10212 20096 ft 374 kts 295°
2026-05-04 05:22 47.57570 18.06733 20099 ft 373 kts 295°
2026-05-04 05:22 47.58645 18.03209 20107 ft 374 kts 295°
2026-05-04 05:23 47.59705 17.99729 19895 ft 376 kts 295°
2026-05-04 05:23 47.60779 17.96199 19504 ft 374 kts 295°
2026-05-04 05:23 47.61834 17.92728 19087 ft 371 kts 295°
2026-05-04 05:23 47.62889 17.89248 18688 ft 369 kts 295°
2026-05-04 05:24 47.63939 17.85783 18264 ft 368 kts 295°
2026-05-04 05:24 47.64984 17.82330 17859 ft 366 kts 294°
2026-05-04 05:24 47.66021 17.78896 17461 ft 364 kts 294°
2026-05-04 05:24 47.67047 17.75496 17047 ft 362 kts 294°
2026-05-04 05:25 47.68061 17.72127 16629 ft 361 kts 294°
2026-05-04 05:25 47.69078 17.68748 16258 ft 359 kts 294°
2026-05-04 05:25 47.70084 17.65400 15860 ft 357 kts 295°
2026-05-04 05:25 47.71097 17.62025 15476 ft 354 kts 295°
2026-05-04 05:26 47.72083 17.58733 15071 ft 352 kts 295°
2026-05-04 05:26 47.73082 17.55395 14686 ft 351 kts 295°
2026-05-04 05:26 47.74072 17.52084 14305 ft 349 kts 294°
2026-05-04 05:26 47.75018 17.48840 14091 ft 345 kts 293°
2026-05-04 05:27 47.75946 17.45533 14085 ft 347 kts 293°
2026-05-04 05:28 47.82438 17.22266 14077 ft 348 kts 291°
2026-05-04 05:29 47.83363 17.18932 14076 ft 350 kts 291°
2026-05-04 05:29 47.84290 17.15587 14075 ft 350 kts 291°
2026-05-04 05:29 47.85213 17.12250 14074 ft 349 kts 291°
2026-05-04 05:29 47.86125 17.08948 13945 ft 351 kts 291°
2026-05-04 05:31 47.92469 16.85855 12740 ft 341 kts 291°
2026-05-04 05:31 47.93362 16.82586 12462 ft 339 kts 291°
2026-05-04 05:32 47.94249 16.79337 12200 ft 337 kts 291°
2026-05-04 05:32 47.95124 16.76125 11935 ft 334 kts 290°
2026-05-04 05:32 47.95995 16.72925 11645 ft 330 kts 290°
2026-05-04 05:33 47.97675 16.66739 11101 ft 318 kts 290°
2026-05-04 05:33 47.98500 16.63691 10604 ft 316 kts 290°
2026-05-04 05:33 47.99319 16.60668 9998 ft 316 kts 290°
2026-05-04 05:33 48.00124 16.57690 9144 ft 309 kts 290°
2026-05-04 05:34 48.00919 16.54746 8370 ft 299 kts 290°
2026-05-04 05:34 48.01672 16.51956 7728 ft 287 kts 290°
2026-05-04 05:34 48.02581 16.49357 7072 ft 279 kts 298°
2026-05-04 05:34 48.03559 16.46917 6454 ft 280 kts 298°
2026-05-04 05:35 48.04557 16.44422 6065 ft 274 kts 299°
2026-05-04 05:35 48.05513 16.42028 5957 ft 266 kts 299°
2026-05-04 05:35 48.06472 16.39624 6238 ft 270 kts 299°
2026-05-04 05:35 48.07435 16.37209 6247 ft 273 kts 299°
2026-05-04 05:36 48.08413 16.34754 6262 ft 274 kts 299°
2026-05-04 05:36 48.09380 16.32323 6191 ft 274 kts 298°
2026-05-04 05:36 48.10346 16.29894 5698 ft 266 kts 298°
2026-05-04 05:36 48.11269 16.27572 5120 ft 258 kts 298°
2026-05-04 05:37 48.12191 16.25350 4477 ft 253 kts 310°
2026-05-04 05:37 48.13629 16.23982 3909 ft 247 kts 348°
2026-05-04 05:37 48.15275 16.24216 3454 ft 240 kts 23°
2026-05-04 05:38 48.18055 16.26647 3023 ft 227 kts 30°
2026-05-04 05:38 48.19125 16.28405 3063 ft 235 kts 64°
2026-05-04 05:38 48.19514 16.30782 3048 ft 236 kts 86°
2026-05-04 05:38 48.19188 16.33131 3044 ft 233 kts 121°
2026-05-04 05:39 48.18317 16.35170 3042 ft 232 kts 121°
2026-05-04 05:39 48.16880 16.39275 2983 ft 211 kts 116°
2026-05-04 05:39 48.16244 16.41221 2553 ft 202 kts 117°
2026-05-04 05:40 48.15055 16.44850 1511 ft 188 kts 117°
2026-05-04 05:40 48.14528 16.46483 1457 ft 162 kts 117°
2026-05-04 05:40 48.14080 16.47864 1449 ft 135 kts 115°
2026-05-04 05:41 48.13721 16.49115 1192 ft 127 kts 117°
2026-05-04 05:41 48.13326 16.50161 1000 ft 124 kts 121°
2026-05-04 05:41 48.13088 16.50819 947 ft 125 kts 118°
2026-05-04 05:41 48.12728 16.52011 856 ft 127 kts 117°
2026-05-04 05:42 48.12336 16.53195 680 ft 129 kts 118°
2026-05-04 05:42 48.11953 16.54345 608 ft 106 kts 116°
2026-05-04 05:42 48.11702 16.55109 608 ft 60 kts 115°
2026-05-04 05:42 48.11568 16.55526 607 ft 35 kts 116°
2026-05-04 05:43 48.11503 16.55861 607 ft 32 kts 92°
2026-05-04 05:43 48.11511 16.56080 607 ft 10 kts 75°
2026-05-04 05:43 48.11557 16.56147 607 ft 9 kts 24°
2026-05-04 05:45 48.11660 16.56447 607 ft 0 kts 205°
2026-05-04 05:45 48.11659 16.56446 607 ft 0 kts 205°